Wichita, KS

3:13 AM CDT on July 23, 2017 (GMT -0500)
Wichita Eisenhower National Airport

Weather History for KICT - March, 2014

Change the Weather History Date:

Friday, March 28, 2014

  Actual Average Record
Temperature  
Mean Temperature 47 °F 50 °F  
Max Temperature 59 °F 62 °F 91 °F (1895)
Min Temperature 35 °F 39 °F 11 °F (1899)
Degree Days  
Heating Degree Days 18 15  
Month to date heating degree days 652 533  
Since 1 July heating degree days 4571 4173  
Cooling Degree Days 0 0  
Month to date cooling degree days 0 0  
Year to date cooling degree days 0 0  
Moisture  
Dew Point 30 °F    
Average Humidity 58    
Maximum Humidity 76    
Minimum Humidity 39    
Precipitation  
Precipitation 0.00 in 0.10 in 1.89 in (2017)
Month to date precipitation 0.49 2.39  
Year to date precipitation 1.48 4.40  
Snow  
Snow 0.00 in 0.00 in 4.80 in (2009)
Month to date snowfall 3.2 2.1  
Since 1 July snowfall 22.7 14.5  
Snow Depth 0.00 in    
Sea Level Pressure  
Sea Level Pressure 30.02 in    
Wind  
Wind Speed 10 mph (NNE)    
Max Wind Speed 21 mph    
Max Gust Speed 26 mph    
Visibility 9 miles    
Events      
T = Trace of Precipitation, MM = Missing Value Source: NWS Daily Summary

Daily Weather History Graph

Daily Weather History Graph

Search for Another Location

Airport or City:

Trip Planner

Search our weather history database for the weather conditions in past years. The results will help you decide how hot, cold, wet, or windy it might be!

Date:

Astronomy

Mar. 28, 2014 Rise Set
Actual Time 7:21 AM CDT 7:48 PM CDT
Civil Twilight 6:54 AM CDT 8:15 PM CDT
Nautical Twilight 6:23 AM CDT 8:46 PM CDT
Astronomical Twilight 5:52 AM CDT 9:17 PM CDT
Moon 5:50 AM CDT (3/28) 5:49 PM CDT (3/28)
Length of Visible Light 13h 20m
Length of Day
12h 27m
Waning Crescent, 6% of the Moon is Illuminated
Mar 28
Waning Crescent
Mar 30
New
Apr 7
First Quarter
Apr 15
Full
Apr 22
Last Quarter

Hourly Weather History & Observations

Time (CDT) Temp. Windchill Dew Point Humidity Pressure Visibility Wind Dir Wind Speed Gust Speed Precip Events Conditions
12:53 AM 42.1 °F 33.9 °F 30.9 °F 65% 29.85 in 9.0 mi North 17.3 mph - N/A   Scattered Clouds
1:53 AM 39.9 °F 31.1 °F 30.0 °F 68% 29.85 in 8.0 mi North 17.3 mph - N/A   Scattered Clouds
2:53 AM 37.9 °F 30.5 °F 30.0 °F 73% 29.88 in 8.0 mi NNE 11.5 mph - N/A   Scattered Clouds
3:53 AM 37.9 °F 31.5 °F 28.9 °F 70% 29.91 in 8.0 mi North 9.2 mph - N/A   Mostly Cloudy
4:53 AM 37.0 °F 27.4 °F 28.0 °F 70% 29.91 in 8.0 mi NNE 17.3 mph - N/A   Partly Cloudy
5:53 AM 36.0 °F 29.0 °F 27.0 °F 70% 29.96 in 9.0 mi NNE 9.2 mph - N/A   Mostly Cloudy
6:53 AM 36.0 °F 27.1 °F 27.0 °F 70% 29.98 in 9.0 mi NNE 13.8 mph - N/A   Overcast
7:53 AM 35.1 °F 28.6 °F 27.0 °F 72% 30.02 in 10.0 mi NNE 8.1 mph - N/A   Overcast
8:53 AM 37.0 °F 31.0 °F 27.0 °F 67% 30.05 in 10.0 mi NE 8.1 mph - N/A   Overcast
9:53 AM 37.9 °F 33.5 °F 28.0 °F 68% 30.07 in 10.0 mi NE 5.8 mph - N/A   Overcast
10:53 AM 39.0 °F 31.4 °F 28.0 °F 65% 30.08 in 10.0 mi North 12.7 mph - N/A   Overcast
11:53 AM 44.1 °F 36.8 °F 28.9 °F 55% 30.09 in 10.0 mi North 16.1 mph - N/A   Overcast
12:53 PM 46.9 °F - 30.0 °F 52% 30.06 in 9.0 mi NNE 17.3 mph - N/A   Overcast
1:53 PM 48.0 °F - 30.0 °F 50% 30.06 in 9.0 mi North 16.1 mph - N/A   Overcast
2:53 PM 48.9 °F - 30.0 °F 48% 30.05 in 9.0 mi NNE 13.8 mph - N/A   Overcast
3:53 PM 54.0 °F - 30.9 °F 41% 30.04 in 10.0 mi NNE 13.8 mph - N/A   Mostly Cloudy
4:53 PM 57.0 °F - 32.0 °F 39% 30.01 in 10.0 mi NNE 8.1 mph - N/A   Scattered Clouds
5:53 PM 57.9 °F - 33.1 °F 39% 30.01 in 10.0 mi NE 9.2 mph - N/A   Mostly Cloudy
6:53 PM 55.9 °F - 33.1 °F 42% 30.04 in 10.0 mi NNE 8.1 mph - N/A   Mostly Cloudy
7:53 PM 51.1 °F - 33.1 °F 50% 30.07 in 10.0 mi NNE 6.9 mph - N/A   Scattered Clouds
8:53 PM 48.0 °F - 32.0 °F 54% 30.10 in 10.0 mi NE 5.8 mph - N/A   Scattered Clouds
9:53 PM 46.0 °F 43.1 °F 32.0 °F 58% 30.14 in 10.0 mi East 5.8 mph - N/A   Partly Cloudy
10:53 PM 45.0 °F 43.5 °F 32.0 °F 60% 30.15 in 10.0 mi East 3.5 mph - N/A   Partly Cloudy
11:53 PM 39.0 °F - 30.0 °F 70% 30.16 in 9.0 mi Calm Calm - N/A   Partly Cloudy